Flag for Austria Weather past 2 weeks in Fürstenfeld, Styria, Austria

Now
28 °F

Fog.


Feels Like: 28 °F
Forecast: 18 / 37 °F
Wind: 2 mph from Northwest

Location: Murska Sobota

Current Time: Feb 1, 2015 at 9:05:01 AM

Latest Report: Feb 1, 2015 at 8:00 AM


Visibility: 4 mi

Pressure: 29.26 "Hg

Humidity: 93%

Dew point: 26 °F

Location of FürstenfeldLocation

Historic Weather in Fürstenfeld — Graph

°F

Fürstenfeld temperature yesterday

Maximum temperature yesterday: 44 °F (at 3:00 PM)
Minimum temperature yesterday: 26 °F (at 7:00 AM)
Average temperature yesterday: 34 °F

Past Weeks' High & Low Weather Summary

 TemperatureHumidityPressure
High52 °F (Jan 17, 2:00 PM)100% (Jan 22, 7:00 AM)30.32 "Hg (Jan 22, 7:00 AM)
Low24 °F (Jan 27, 4:00 AM)57% (Jan 25, 8:00 PM)28.82 "Hg (Jan 30, 11:00 AM)
Average36 °F85%29.82 "Hg
* Reported Jan 17 7:00 AM — Feb 1 7:00 AM, Fürstenfeld, Weather by CustomWeather, © 2014

Note: Actual official high and low records may vary slightly from our data, if they occured in-between our weather recording intervals... More about our weather records

Advertising

Fürstenfeld weather history for previous 24 hours

 ConditionsComfort  
Time TempWeatherWind HumidityBarometerVisibility
7:00 AM
Feb 1
28 °FFog.1 mph92%29.26 "Hg4 mi
6:00 AM28 °FChilly.2 mph94%29.23 "HgN/A
5:00 AM28 °FChilly.2 mph94%29.23 "HgN/A
4:00 AM28 °FChilly.1 mph95%29.23 "HgN/A
3:00 AM28 °FChilly.1 mph96%29.23 "HgN/A
2:00 AM29 °FChilly.2 mph95%29.23 "HgN/A
1:00 AM28 °FChilly.1 mph95%29.26 "HgN/A
12:00 AM29 °FChilly.1 mph95%29.23 "HgN/A
11:00 PM
Jan 31
29 °FChilly.1 mph96%29.26 "HgN/A
10:00 PM30 °FChilly.1 mph94%29.26 "HgN/A
9:00 PM30 °FChilly.1 mph94%29.23 "HgN/A
8:00 PM31 °FChilly.1 mph87%29.23 "HgN/A
7:00 PM35 °FPassing clouds.1 mph81%29.23 "Hg6 mi
6:00 PM35 °FChilly.1 mph82%29.21 "HgN/A
5:00 PM40 °FChilly.1 mph66%29.18 "HgN/A
4:00 PM44 °FQuite cool.2 mph62%29.18 "HgN/A
3:00 PM44 °FQuite cool.2 mph63%29.18 "HgN/A
2:00 PM42 °FPassing clouds.3 mph66%29.18 "Hg12 mi
1:00 PM41 °FPassing clouds.2 mph70%29.18 "Hg6 mi
12:00 PM39 °FChilly.2 mph72%29.18 "HgN/A
11:00 AM36 °FChilly.2 mph77%29.18 "HgN/A
10:00 AM35 °FChilly.2 mph80%29.15 "HgN/A
9:00 AM31 °FChilly.1 mph89%29.15 "HgN/A
Weather by CustomWeather, © 2014

See weather overviewHow to use our weather pages